Tracking 22438 objects as of 25-Feb-2021
HD Live streaming from Space Station
objects crossing your sky now

FREGAT DEB

Track FREGAT DEB now!
10-day predictions


NORAD ID: 46243
Int'l Code: 2011-037KD
Perigee: 1,458.4 km
Apogee: 4,347.3 km
Inclination: 51.9 °
Period: 148.1 minutes
Semi major axis: 9273 km
RCS: Unknown
Launch date: July 18, 2011
Source: Commonwealth of Independent States (former USSR) (CIS)
Launch site: TYURATAM MISSILE AND SPACE COMPLEX (TTMTR)

Note: This is SATELLITE DEBRIS
aabbcc
Your satellite tracking list
Your tracking list is empty




NASA's NSSDC Master Catalog

Two Line Element Set (TLE):
1 46243U 11037KD  20260.13661497 -.00000043 +00000-0 +00000-0 0  9996
2 46243 051.8664 221.5919 1557580 180.0652 180.0070 09.72107365002708
Source of the keplerian elements: AFSPC